Ukiah, CA

1:23 PM PDT on April 21, 2018 (GMT -0700)
Ukiah Municipal

Weather History for KUKI - December, 2014

Change the Weather History Date:

Tuesday, December 9, 2014

  Actual Average Record
Temperature  
Mean Temperature 58 °F 46 °F  
Max Temperature 62 °F 55 °F 70 °F (1962)
Min Temperature 53 °F 36 °F 13 °F (1972)
Degree Days  
Heating Degree Days 7 19  
Month to date heating degree days 75 169  
Since 1 July heating degree days 476 792  
Cooling Degree Days 0 0  
Month to date cooling degree days 0 0  
Year to date cooling degree days 1290 835  
Growing Degree Days 8 (Base 50)    
Moisture  
Dew Point 54 °F    
Average Humidity 86    
Maximum Humidity 93    
Minimum Humidity 78    
Precipitation  
Precipitation 0.00 in 0.20 in 3.17 in (1929)
Month to date precipitation 3.81 1.55  
Year to date precipitation 26.80 31.95  
Since 1 July precipitation 10.17  
Snow  
Snow 0.00 in - - ()
Month to date snowfall 0.0  
Since 1 July snowfall 0.0  
Snow Depth 0.00 in    
Sea Level Pressure  
Sea Level Pressure 30.14 in    
Wind  
Wind Speed 1 mph (South)    
Max Wind Speed 10 mph    
Max Gust Speed 14 mph    
Visibility 8 miles    
Events Rain    
T = Trace of Precipitation, MM = Missing Value Source: NWS Daily Summary

Daily Weather History Graph

Daily Weather History Graph

Search for Another Location

Airport or City:

Astronomy

Dec. 09, 2014 Rise Set
Actual Time 7:20 AM PST 4:49 PM PST
Civil Twilight 6:50 AM PST 5:19 PM PST
Nautical Twilight 6:17 AM PST 5:53 PM PST
Astronomical Twilight 5:44 AM PST 6:25 PM PST
Moon 8:13 PM PST (12/9) 9:37 AM PST (12/9)
Length of Visible Light 10h 29m
Length of Day
9h 29m
Waning Gibbous, 89% of the Moon is Illuminated
Dec 9
Waning Gibbous
Dec 14
Last Quarter
Dec 21
New
Dec 28
First Quarter
Jan 4
Full

Hourly Weather History & Observations

Time (PST) Temp. Dew Point Humidity Pressure Visibility Wind Dir Wind Speed Gust Speed Precip Events Conditions
12:47 AM 57.0 °F 55.0 °F 93% 30.14 in 7.0 mi NW 3.5 mph - N/A   Overcast
12:56 AM 57.0 °F 55.0 °F 93% 30.13 in 7.0 mi Calm Calm - N/A   Overcast
1:19 AM 55.9 °F 55.0 °F 97% 30.13 in 4.0 mi Calm Calm - N/A   Overcast
1:28 AM 57.0 °F 55.0 °F 93% 30.14 in 5.0 mi Calm Calm - N/A   Overcast
1:56 AM 57.0 °F 55.0 °F 93% 30.14 in 9.0 mi Calm Calm - N/A   Overcast
2:21 AM 57.0 °F 55.0 °F 93% 30.15 in 7.0 mi SSE 3.5 mph - N/A   Overcast
2:45 AM 57.0 °F 55.0 °F 93% 30.17 in 8.0 mi Calm Calm - N/A   Overcast
2:56 AM 57.0 °F 55.0 °F 93% 30.16 in 7.0 mi Calm Calm - N/A   Overcast
3:08 AM 57.0 °F 55.0 °F 93% 30.17 in 7.0 mi Calm Calm - N/A   Overcast
3:56 AM 57.0 °F 55.0 °F 93% 30.17 in 6.0 mi Calm Calm - N/A   Overcast
4:27 AM 55.9 °F 55.0 °F 97% 30.17 in 3.0 mi Calm Calm - N/A   Overcast
4:40 AM 55.9 °F 55.0 °F 97% 30.16 in 4.0 mi Calm Calm - N/A   Overcast
4:56 AM 57.0 °F 55.0 °F 93% 30.15 in 5.0 mi Calm Calm - N/A   Overcast
5:14 AM 57.0 °F 54.0 °F 89% 30.17 in 5.0 mi Calm Calm - N/A   Overcast
5:23 AM 57.0 °F 55.0 °F 93% 30.16 in 5.0 mi Calm Calm - N/A   Overcast
5:40 AM 55.9 °F 55.0 °F 97% 30.16 in 4.0 mi Calm Calm - N/A   Overcast
5:56 AM 55.9 °F 54.0 °F 93% 30.14 in 4.0 mi South 3.5 mph - N/A   Overcast
6:08 AM 55.9 °F 55.0 °F 97% 30.14 in 5.0 mi SW 3.5 mph - N/A   Overcast
6:44 AM 57.0 °F 55.0 °F 93% 30.16 in 7.0 mi Calm Calm - N/A   Overcast
6:56 AM 55.9 °F 54.0 °F 93% 30.15 in 7.0 mi ENE 3.5 mph - N/A   Overcast
7:16 AM 55.9 °F 55.0 °F 97% 30.17 in 7.0 mi Calm Calm - N/A   Overcast
7:40 AM 57.0 °F 55.0 °F 93% 30.17 in 2.5 mi Calm Calm - N/A   Overcast
7:47 AM 57.0 °F 55.0 °F 93% 30.17 in 4.0 mi Calm Calm - N/A   Overcast
7:56 AM 57.0 °F 55.0 °F 93% 30.17 in 5.0 mi Calm Calm - N/A   Overcast
8:56 AM 57.9 °F 55.0 °F 90% 30.18 in 10.0 mi Calm Calm - N/A   Overcast
9:44 AM 57.9 °F 55.0 °F 90% 30.20 in 5.0 mi Calm Calm - 0.00 in Rain Light Rain
9:56 AM 59.0 °F 55.0 °F 87% 30.19 in 10.0 mi Calm Calm - 0.00 in   Overcast
10:07 AM 59.0 °F 55.9 °F 90% 30.20 in 10.0 mi Calm Calm - N/A   Overcast
10:40 AM 59.0 °F 55.9 °F 90% 30.19 in 10.0 mi Calm Calm - N/A   Overcast
10:56 AM 60.1 °F 55.9 °F 86% 30.18 in 10.0 mi South 4.6 mph - N/A   Mostly Cloudy
11:05 AM 60.1 °F 55.9 °F 86% 30.18 in 10.0 mi Variable 3.5 mph - N/A   Mostly Cloudy
11:13 AM 60.1 °F 55.9 °F 86% 30.17 in 10.0 mi SSE 4.6 mph - N/A   Scattered Clouds
11:45 AM 60.1 °F 55.9 °F 86% 30.18 in 10.0 mi Calm Calm - N/A   Mostly Cloudy
11:56 AM 61.0 °F 55.9 °F 83% 30.16 in 10.0 mi SSE 4.6 mph - N/A   Mostly Cloudy
12:56 PM 61.0 °F 55.9 °F 83% 30.14 in 10.0 mi SSE 3.5 mph - N/A   Mostly Cloudy
1:56 PM 61.0 °F 55.0 °F 81% 30.10 in 10.0 mi South 4.6 mph - N/A   Clear
2:56 PM 62.1 °F 55.9 °F 80% 30.11 in 10.0 mi Calm Calm - N/A   Mostly Cloudy
3:56 PM 61.0 °F 55.9 °F 83% 30.13 in 10.0 mi South 3.5 mph - N/A   Partly Cloudy
4:56 PM 60.1 °F 55.0 °F 83% 30.12 in 10.0 mi SW 3.5 mph - N/A   Clear
5:56 PM 55.9 °F 53.1 °F 90% 30.11 in 10.0 mi Calm Calm - N/A   Clear
6:56 PM 55.0 °F 52.0 °F 89% 30.10 in 8.0 mi WNW 3.5 mph - N/A   Clear
7:47 PM 53.1 °F 51.1 °F 93% 30.12 in 7.0 mi Calm Calm - N/A   Scattered Clouds
7:56 PM 53.1 °F 51.1 °F 93% 30.11 in 6.0 mi Calm Calm - N/A   Mostly Cloudy
8:30 PM 54.0 °F 52.0 °F 93% 30.09 in 9.0 mi Calm Calm - N/A   Overcast
8:56 PM 54.0 °F 52.0 °F 93% 30.09 in 10.0 mi Calm Calm - N/A   Overcast
9:20 PM 53.1 °F 51.1 °F 93% 30.10 in 8.0 mi Calm Calm - N/A   Scattered Clouds
9:29 PM 53.1 °F 52.0 °F 96% 30.10 in 7.0 mi Calm Calm - N/A   Mostly Cloudy
9:46 PM 54.0 °F 52.0 °F 93% 30.10 in 9.0 mi Calm Calm - N/A   Overcast
9:56 PM 54.0 °F 52.0 °F 93% 30.09 in 9.0 mi Calm Calm - N/A   Overcast
10:19 PM 53.1 °F 52.0 °F 96% 30.09 in 9.0 mi Calm Calm - N/A   Overcast
10:56 PM 54.0 °F 51.1 °F 90% 30.07 in 10.0 mi Calm Calm - N/A   Overcast
11:32 PM 53.1 °F 51.1 °F 93% 30.07 in 10.0 mi Calm Calm - N/A   Overcast
11:49 PM 54.0 °F 51.1 °F 90% 30.08 in 10.0 mi Calm Calm - N/A   Overcast
11:56 PM 54.0 °F 52.0 °F 93% 30.06 in 10.0 mi Calm Calm - N/A   Overcast